Zurück zum Katalog

STARLINK-4350

AktivKommunikationSSO
NORAD 53045·PAYLOAD·🇺🇸 United States

Gestartet Jul 11, 2022 von Vandenberg Space Force Base

Loading…

Nächste Überflüge (nächste 24 Stunden)

TLE

AktuellSource: CelesTrak SupGP

Epoche: Sep 15, 2026, 02:54 UTC

1 53045C 22077C   26258.12131944 -.00059389  00000+0 -18436-2 0  2580
2 53045  97.2857  73.9441 0001667  88.7139 308.3716 15.33468337    13

Verfolge STARLINK-4350 in Echtzeit mit AllMySat

Download on the App Store